FW0523 Weather Reports


Display with metric or nautical units.
time (UTC)temp
F
wind
direction
speed
MPH
gust
MPH
rain 1hr
in
rain 24hr
in
rain mn
in
humidity
%
barometer
mb
20260906100303 57 178 2.0 2.0 0.00 0.00 0.00 51 1028.4
20260906095306 57 339 1.0 10.0 0.00 0.00 0.00 51 1028.1
20260906094302 57 179 2.0 10.0 0.00 0.00 0.00 51 1028.0
20260906093303 57 143 0.0 10.0 0.00 0.00 0.00 50 1028.1
20260906092306 57 220 2.0 7.0 0.00 0.00 0.00 50 1028.3
20260906090202 57 360 5.0 8.0 0.00 0.00 0.00 50 1028.3
20260906085205 57 209 1.0 7.0 0.00 0.00 0.00 50 1028.1
20260906084203 57 119 1.0 8.0 0.00 0.00 0.00 50 1028.1
20260906083204 57 219 0.0 10.0 0.00 0.00 0.00 50 1028.3
20260906082202 57 162 0.0 7.0 0.00 0.00 0.00 50 1028.4
20260906080103 57 210 3.0 7.0 0.00 0.00 0.00 49 1028.5
20260906075103 57 360 2.0 9.0 0.00 0.00 0.00 50 1028.5
20260906074102 57 195 2.0 8.0 0.00 0.00 0.00 50 1028.7
20260906073103 57 113 2.0 5.0 0.00 0.00 0.00 49 1028.7
20260906072103 58 241 0.0 3.0 0.00 0.00 0.00 49 1028.8
20260906071104 58 195 0.0 2.0 0.00 0.00 0.00 48 1028.8
20260906065103 58 143 2.0 8.0 0.00 0.00 0.00 48 1028.8
20260906064104 58 224 3.0 10.0 0.00 0.00 0.00 48 1028.7
20260906063102 58 360 0.0 10.0 0.00 0.00 0.00 48 1028.8
20260906062103 59 131 0.0 4.0 0.00 0.00 0.00 48 1028.8
20260906061105 59 205 1.0 6.0 0.00 0.00 0.00 47 1028.7
20260906055103 59 223 0.0 2.0 0.00 0.00 0.00 47 1028.5
20260906054103 59 175 2.0 4.0 0.00 0.00 0.00 47 1028.5
20260906053104 60 175 1.0 8.0 0.00 0.00 0.00 46 1028.7
20260906052103 60 223 1.0 2.0 0.00 0.00 0.00 46 1028.8
20260906051103 60 175 1.0 7.0 0.00 0.00 0.00 45 1028.8
20260906050104 61 152 1.0 9.0 0.00 0.00 0.00 45 1028.7
20260906045102 61 162 2.0 9.0 0.00 0.00 0.00 45 1028.7
20260906044103 61 360 1.0 2.0 0.00 0.00 0.00 45 1028.7
20260906043103 62 209 1.0 7.0 0.00 0.00 0.00 45 1028.7
20260906042104 62 230 2.0 5.0 0.00 0.00 0.00 44 1028.7
20260906041103 62 184 1.0 3.0 0.00 0.00 0.00 44 1028.5
20260906035003 63 248 1.0 6.0 0.00 0.00 0.00 45 1028.5
20260906034004 63 133 0.0 2.0 0.00 0.00 0.00 44 1028.4
20260906033002 63 275 0.0 7.0 0.00 0.00 0.00 44 1028.4
20260906032003 63 114 0.0 2.0 0.00 0.00 0.00 44 1028.1
20260906031004 64 200 0.0 8.0 0.00 0.00 0.00 44 1028.0
20260906030002 64 185 1.0 2.0 0.00 0.00 0.00 43 1027.9
20260906025003 65 161 0.0 0.0 0.00 0.00 0.00 43 1027.7
20260906024003 65 138 0.0 3.0 0.00 0.00 0.00 43 1027.6
20260906023004 66 141 2.0 2.0 0.00 0.00 0.00 42 1027.3
20260906022002 66 241 2.0 6.0 0.00 0.00 0.00 42 1027.2
20260906021003 67 134 2.0 0.0 0.00 0.00 0.00 41 1027.1
20260906020004 68 360 0.0 9.0 0.00 0.00 0.00 41 1026.9
20260906015002 69 268 0.0 0.0 0.00 0.00 0.00 40 1026.8
20260906014003 69 260 0.0 2.0 0.00 0.00 0.00 39 1026.8
20260906013003 70 59 0.0 0.0 0.00 0.00 0.00 39 1026.7
20260906012004 71 59 0.0 0.0 0.00 0.00 0.00 37 1026.7
20260906011002 72 59 0.0 0.0 0.00 0.00 0.00 36 1026.5
20260906010002 72 210 0.0 6.0 0.00 0.00 0.00 35 1026.5
20260906005003 73 80 0.0 0.0 0.00 0.00 0.00 33 1026.5
20260906004003 74 80 0.0 2.0 0.00 0.00 0.00 33 1026.5
20260906003003 74 120 0.0 2.0 0.00 0.00 0.00 31 1026.4
20260906002004 75 23 1.0 5.0 0.00 0.00 0.00 30 1026.3
20260906001002 75 3 1.0 5.0 0.00 0.00 0.00 29 1026.1
20260906000003 75 48 0.0 3.0 0.00 0.00 0.00 30 1026.1
20260905235003 76 10 0.0 5.0 0.00 0.00 0.00 29 1026.0
20260905234003 76 24 0.0 2.0 0.00 0.00 0.00 28 1026.0
20260905233003 76 360 0.0 3.0 0.00 0.00 0.00 27 1026.0
20260905232004 76 35 0.0 4.0 0.00 0.00 0.00 27 1025.9
20260905231004 76 322 0.0 6.0 0.00 0.00 0.00 26 1025.9
20260905230002 77 315 3.0 5.0 0.00 0.00 0.00 26 1025.9
20260905225003 77 3 2.0 5.0 0.00 0.00 0.00 25 1025.7
20260905222902 78 360 3.0 9.0 0.00 0.00 0.00 25 1025.7
20260905221903 78 360 3.0 8.0 0.00 0.00 0.00 25 1025.9
20260905220903 78 356 0.0 7.0 0.00 0.00 0.00 25 1025.9
20260905215904 78 35 2.0 6.0 0.00 0.00 0.00 24 1026.0
20260905211604 79 40 3.0 7.0 0.00 0.00 0.00 23 1026.4
20260905205504 77 51 4.0 9.0 0.00 0.00 0.00 25 1026.5
20260905204502 77 28 5.0 11.0 0.00 0.00 0.00 25 1026.7
20260905203503 77 42 6.0 10.0 0.00 0.00 0.00 25 1026.7
20260905201402 76 359 2.0 9.0 0.00 0.00 0.00 26 1026.8
20260905200403 76 339 3.0 9.0 0.00 0.00 0.00 26 1026.9
20260905195403 76 11 0.0 7.0 0.00 0.00 0.00 26 1026.9
20260905194403 76 8 2.0 9.0 0.00 0.00 0.00 26 1027.1
20260905193403 77 356 5.0 10.0 0.00 0.00 0.00 25 1027.3
20260905192404 76 354 1.0 7.0 0.00 0.00 0.00 26 1027.3
20260905190304 76 18 5.0 7.0 0.00 0.00 0.00 25 1027.6
20260905185306 76 343 2.0 5.0 0.00 0.00 0.00 25 1027.6
20260905183204 77 4 2.0 6.0 0.00 0.00 0.00 23 1027.9
20260905182204 76 17 0.0 5.0 0.00 0.00 0.00 24 1028.0
20260905180104 76 11 1.0 4.0 0.00 0.00 0.00 25 1028.1
20260905175104 76 8 3.0 7.0 0.00 0.00 0.00 25 1028.3
20260905174102 75 23 1.0 5.0 0.00 0.00 0.00 25 1028.3
20260905172004 74 354 2.0 5.0 0.00 0.00 0.00 28 1028.3
20260905171004 73 27 6.0 5.0 0.00 0.00 0.00 30 1028.5
20260905170004 73 357 5.0 10.0 0.00 0.00 0.00 30 1028.5
20260905165003 72 14 1.0 8.0 0.00 0.00 0.00 32 1028.5
20260905161804 71 28 3.0 8.0 0.00 0.00 0.00 34 1028.5
20260905160802 70 330 6.0 10.0 0.00 0.00 0.00 35 1028.5
20260905155803 70 339 2.0 8.0 0.00 0.00 0.00 36 1028.7
20260905153703 68 145 0.0 0.0 0.00 0.00 0.00 40 1028.7
20260905152704 66 145 0.0 0.0 0.00 0.00 0.00 44 1028.8
20260905151704 65 145 0.0 0.0 0.00 0.00 0.00 47 1028.8
20260905150703 64 145 1.0 8.0 0.00 0.00 0.00 49 1028.8
20260905145703 62 169 3.0 8.0 0.00 0.00 0.00 51 1028.8
20260905144704 60 121 2.0 6.0 0.00 0.00 0.00 54 1028.9
20260905142603 59 97 0.0 1.0 0.00 0.00 0.00 56 1029.1
20260905140503 60 92 2.0 10.0 0.00 0.00 0.00 54 1029.1
20260905135503 59 360 2.0 10.0 0.00 0.00 0.00 53 1029.1
20260905134504 58 193 3.0 8.0 0.00 0.00 0.00 56 1029.1
20260905132402 58 360 1.0 6.0 0.00 0.00 0.00 55 1028.9
20260905131403 58 233 1.0 8.0 0.00 0.00 0.00 57 1028.9
20260905130404 58 160 3.0 8.0 0.00 0.00 0.00 56 1028.7
20260905125404 58 179 3.0 7.0 0.00 0.00 0.00 57 1028.7
20260905124403 58 72 0.0 10.0 0.00 0.00 0.00 57 1028.4
20260905122306 58 147 4.0 9.0 0.00 0.00 0.00 56 1028.1
20260905121304 59 205 2.0 10.0 0.00 0.00 0.00 55 1028.1
20260905120302 59 160 0.0 8.0 0.00 0.00 0.00 56 1028.1
20260905115306 60 164 2.0 9.0 0.00 0.00 0.00 55 1028.1
20260905114303 60 360 1.0 9.0 0.00 0.00 0.00 55 1028.1
20260905113302 60 110 2.0 9.0 0.00 0.00 0.00 55 1028.1
20260905112305 60 186 2.0 8.0 0.00 0.00 0.00 54 1028.0
20260905111303 60 360 2.0 9.0 0.00 0.00 0.00 54 1028.0
20260905110304 60 360 3.0 3.0 0.00 0.00 0.00 54 1028.0
20260905105306 60 247 2.0 8.0 0.00 0.00 0.00 55 1027.9
20260905104303 61 219 2.0 3.0 0.00 0.00 0.00 55 1027.7
20260905103304 61 198 1.0 9.0 0.00 0.00 0.00 54 1027.7
20260905102305 60 44 0.0 9.0 0.00 0.00 0.00 54 1027.7
20260905101303 60 167 3.0 3.0 0.00 0.00 0.00 56 1027.6